パンスターズ彗星

C/2015 H2 ( PanSTARRS )

English version
Home page
Updated on May 19, 2019

---------------------------------------------------------------------

・ プロフィール

発見日 2015年4月24日
発見光度 19.7等
発見者 Pan-STARRS 1 telescope (Haleakala)

・ 写真集

・ 軌道要素

Epoch 2016 Sept. 9.0 TT = JDT 2457640.5
T 2016 Sept. 13.24889 TT                                MPCW
q   4.9672221            (2000.0)            P               Q
z  -0.0006684      Peri.  287.90525     +0.17535651     +0.98040508
 +/-0.0000007      Node   350.69183     -0.55230785     +0.02249536
e   1.0033202      Incl.   33.70511     -0.81498842     +0.19570345
From 174 observations 2014 May 19-2018 Oct. 14, mean residual 0".6.

・ 光度変化

        m1 = 7.0 + 5 logΔ + 10.0 log r

---------------------------------------------------------------------

軌道要素はM.P.E.C. 2019-J142に掲載されたものです。
光度グラフはComet for Windowsで作成したものです。

---------------------------------------------------------------------

Copyright(C) Seiichi Yoshida (comet@aerith.net). All rights reserved.